Regional Weather Roundup
Issued by NWS Grand Forks, ND

Home | Current Version | Previous Version | Graphics & Text | Print | Product List | Glossary On
Versions: 1 2 3 4 5 6 7 8 9 10 11 12 13 14 15 16 17 18 19 20 21 22 23 24 25 26 27 28 29 30 31 32 33 34 35 36 37 38 39 40 41 42 43 44 45 46 47 48 49 50
000
ASUS43 KFGF 271331
RWRFGF
PRAIRIE TO PINES  WEATHER ROUNDUP
NATIONAL WEATHER SERVICE EASTERN NORTH DAKOTA/GRAND FORKS ND
800 AM CDT THU JUL 27 2017

 **SATELLITE DATA USED TO AUGMENT SKY COVER AT AUTOMATED STATIONS**
 *****  WEATHER ACROSS EASTERN NORTH DAKOTA  *****

CITY           SKY/WX    TMP DP  RH WIND       PRES   REMARKS
GRAND FORKS    PTSUNNY   65  61  87 W3        30.12R
GRAND FRKS AFB FAIR      64  61  90 CALM      30.13R
DEVILS LAKE    FAIR      64  60  87 CALM      30.17S
FARGO          FAIR      64  60  87 NW5       30.13R
WAHPETON ARPT  FAIR      64  59  82 CALM      30.13S
$$

 ***** WEATHER ACROSS CENTRAL AND WESTERN NORTH DAKOTA  *****

CITY           SKY/WX    TMP DP  RH WIND       PRES   REMARKS
BISMARCK       CLOUDY    66  61  84 CALM      30.18F
MINOT          FAIR      70  58  65 S8        30.11S
JAMESTOWN        N/A     64  61  90 CALM      30.16R
MINOT AFB      FAIR      68  60  74 S5        30.09F
GARRISON         N/A     63  61  93 SE10      30.13F
WILLISTON      LGT RAIN  67  58  72 SE15G23   30.09F
DICKINSON      FAIR      64  57  78 E16       30.12R
HETTINGER      FAIR      65  53  65 SE7       30.13S
$$

 *****  OTHER AIRPORT OBSERVATIONS IN OUR AREA  *****

CITY           SKY/WX    TMP DP  RH WIND       PRES   REMARKS
WALHALLA       NOT AVBL
GRAFTON AIRPOR FAIR      66  63  88 CALM      30.15R
VALLEY CITY AR FAIR      64  64 100 CALM      30.18S
CANDO          NOT AVBL
CAVALIER APRT  FAIR      68  61  77 W5        30.12S
GWINNER        SUNNY     66  61  82 CALM      30.15S
ROLLA            N/A     66  64  94 CALM      30.17S
 ***** THE ABOVE OBSERVATIONS ARE NON NWS ARE NOT QUALITY
       CONTROLLED AND MAY MIS-REPORT RAIN FOR SNOW...
$$

  *****  WEATHER ACROSS NORTHERN MINNESOTA  *****

CITY           SKY/WX    TMP DP  RH WIND       PRES   REMARKS
FLAG ISLAND    FAIR      68  63  83 NW3       30.10R
WARROAD        FAIR      66  63  88 CALM      30.12S
ROSEAU           N/A     64  57  77 CALM      30.13R
HALLOCK        FAIR      63  61  94 CALM      30.12S
THF RVR FALLS  FAIR      66  61  84 CALM      30.14R
BAUDETTE       FAIR      64  62  93 CALM      30.10S
WASKISH        PTSUNNY   66  63  88 CALM      30.12R
CROOKSTON      FAIR      63  61  94 CALM      30.14R
STEPHEN NDAWN    N/A     64  61  88 SW2         N/A
GREENBUSH NDAW   N/A     64  61  88 W3          N/A
$$
  *****  WEATHER ACROSS CENTRAL AND WEST MINNESOTA  *****

CITY           SKY/WX    TMP DP  RH WIND       PRES   REMARKS
FOSSTON        FAIR      64  63  94 CALM      30.15R
BEMIDJI        FAIR      65  61  87 NW3       30.13R
PARK RAPIDS    FAIR      68  61  78 N5        30.12S
ELBOW LAKE     FAIR      68  64  86 E5        30.13R FOG
WADENA         FAIR      64  61  88 NE3       30.13R
DETROIT LAKES  FAIR      68  61  77 CALM      30.15R
MOORHEAD       FAIR      64  61  88 CALM      30.14R
FERGUS FALLS   FAIR      68  61  77 E3        30.12S
MORRIS MN      FAIR      70  63  78 CALM      30.11R
STAPLES        FAIR      63  61  94 CALM      30.13R
$$
  *****  WEATHER ELSEWHERE ACROSS MINNESOTA  *****

CITY           SKY/WX    TMP DP  RH WIND       PRES   REMARKS
DULUTH         FAIR      67  62  84 N5        30.09S
INTRNTL FALLS  FAIR      64  60  87 CALM      30.10S
ELY            FAIR      64  61  88 CALM      30.10S
CLOQUET        FAIR      66  57  72 CALM      30.09S
WHEATON        FAIR      66  61  82 NW3       30.15R
BRAINERD       FAIR      66  63  90 CALM      30.11R
HIBBING        FAIR      61  60  97 CALM      30.10S
ALEXANDRIA     FAIR      70  62  76 NE3       30.13R
SAINT CLOUD    FAIR      67  63  87 N5        30.10R
MINNEAPOLIS    FAIR      71  61  70 CALM      30.07R
$$

  *****  WEATHER ACROSS SOUTH DAKOTA  *****

CITY           SKY/WX    TMP DP  RH WIND       PRES   REMARKS
SIOUX FALLS    FAIR      67  63  87 N5        30.13R
BROOKINGS      FAIR      63  60  90 NW3       30.15R
WATERTOWN      FAIR      63  59  87 N6        30.14R
HURON          FAIR      63  61  93 CALM      30.14R
SISSETON         N/A     66  62  87 NW3       30.13R
ABERDEEN       FAIR      63  60  90 N6        30.15S
MITCHELL       FAIR      64  63  96 NW3       30.15R
PIERRE         FAIR      65  56  72 CALM      30.13S
MOBRIDGE       FAIR      67  61  81 SE3       30.13R
RAPID CITY     FAIR      71  59  65 SE7       30.15F
$$

  *****  SOME WEATHER IN NEARBY STATES *****

CITY           SKY/WX    TMP DP  RH WIND       PRES   REMARKS
GLASGOW MT     FAIR      70  49  47 E21       29.98S
GREAT FALLS MT MOCLDY    69  42  37 SW5       30.04R
CHEYENNE WY    FAIR      60  57  89 S3        30.28S
SCOTTSBLUFF NE FAIR      67  65  93 E13       30.19S FOG
OMAHA NE       FAIR      69  65  86 N10       30.05S
DES MOINES IA  FAIR      73  67  81 NE10      30.00R
DAVENPORT IA   CLOUDY    72  69  90 NE9       29.98S
CHICAGO IL     PTSUNNY   77  69  76 N8        29.93S
EAU CLAIRE WI  FAIR      68  63  84 NE5       30.05R
LA CROSSE WI   FAIR      71  67  87 N7        30.03R
$$

  *****  SOME NATIONAL WEATHER *****

CITY           SKY/WX    TMP DP  RH WIND       PRES   REMARKS
LA GUARDIA NY  PTSUNNY   72  62  71 SW8       30.04F
RALEIGH NC     PTSUNNY   78  70  76 SW10      30.09S
ATLANTA GA     PTSUNNY   76  72  87 CALM      30.11R
NEW ORLEANS LA FAIR      83  78  85 NW7       30.07R HX  93
OKLAHOMA CITY  PTSUNNY   79  68  69 S9        29.98S
ALBUQUERQUE NM LGT RAIN  70  62  76 E20       30.22S
SALT LAKE CITY FAIR      67  57  70 SE8       30.18R
LOS ANGELES CA FAIR      67  64  90 W7        29.97R
BOISE ID       FAIR      69  51  52 CALM      30.09R
SEATTLE WA     CLOUDY    58  54  86 SW6       30.14R
$$

*** WEATHER ACROSS MANITOBA...SASKATCHEWAN AND ONTARIO ***
                ***ONTARIO***

CITY           SKY/WX    TMP DP  RH WIND       PRES   REMARKS
GERALDTON      SUNNY     66  52  59 S6        30.09S
THUNDER BAY    SUNNY     66  61  82 CALM      30.08S
SIOUX LOOKOUT  MOSUNNY   64  63  94 N3        30.10R
TORONTO        LGT RAIN  68  64  88 NW6       29.96R
BIG TROUT LK   CLOUDY    63  57  82 W7        30.09R
PICKLE LAKE    MOSUNNY   63  54  72 VRB2      30.11R
DRYDEN         SUNNY     64  61  88 NE5       30.10S
KENORA         MOSUNNY   66  59  77 N3        30.11S
$$
                *** MANITOBA***

CITY           SKY/WX    TMP DP  RH WIND       PRES   REMARKS
BRANDON        MOSUNNY   63  59  88 N2        30.14S
DAUPHIN        SUNNY     64  61  88 SW2       30.09F
ISLAND LAKE    PTSUNNY   68  59  73 SE6       30.06S
PILOT MOUND      N/A     61  57  88 SW2         N/A
THE PAS        MOSUNNY   66  59  77 S3        30.05S
THOMPSON       PTSUNNY   63  61  94 VRB2      30.00R
WINNIPEG       MOSUNNY   64  61  88 CALM      30.11R
LYNN LAKE      SUNNY     63  59  88 SW5       29.96S
CHURCHILL      MOSUNNY   63  52  67 E12       29.96R
GILLAM         PTSUNNY   63  57  82 S7        29.99S
$$
                ***SASKATCHEWAN***

CITY           SKY/WX    TMP DP  RH WIND       PRES   REMARKS
ESTEVAN        MOSUNNY   66  59  77 SE2       30.10S
KINDERSLEY     MOSUNNY   63  50  63 S10       29.97S
LLOYDMINSTER   PTSUNNY   59  54  82 SE7       29.95F
PRINCE ALBERT  MOSUNNY   57  57 100 E5        30.05S
REGINA         MOSUNNY   61  52  72 SE14      30.08R
YORKTON        SUNNY     63  55  77 S6        30.10R
N. BATTLEFORD  SUNNY     61  55  82 E6        30.01S
LA RONGE       MOSUNNY   63  57  82 S3        30.02S
SASKATOON      SUNNY     63  55  77 SE5       30.03S
SWIFT CURRENT  SUNNY     64  50  59 SE9       30.01S
$$
NOTE: THESE ARE AUTOMATED STATIONS WITH LIMITED QUALITY CONTROL
      "FAIR" INDICATES FEW OR NO CLOUDS BELOW 12,000 FEET WITH NO
      SIGNIFICANT WEATHER AND/OR OBSTRUCTIONS TO VISIBILITY.
      SKY/WX - SKY CONDITION AND SIGNIFICANT WEATHER.
      TMP - AIR TEMPERATURE.    DP   - DEWPOINT TEMPERATURE.
      RH  - RELATIVE HUMIDITY.  PRES - PRESSURE.
      HX  - HEAT INDEX.         WCI  - WIND CHILL INDEX.
$




USA.gov is the U.S. government's official web portal to all federal, state and local government web resources and services.